JST407 YBCG-YSSY

Flight info

Callsign JST407
Flight time 1h 5m
Altitude 36000
Route APAGI H91 IGDAM H652 BOREE
Aircraft A21N/M-SDE2E3FGHIJ1RWXY/LB1

Departure

Time 2026-05-06 03:07
Airport Gold Coast Airport (YBCG)

Arrival

Time 2026-05-06 04:13
Airport Sydney Kingsford Smith International Airport (YSSY)
Time Latitude Longitude Altitude Speed Heading
2026-05-06 02:27 -28.16651 153.51163 31 ft 0 kts 60°
2026-05-06 02:56 -28.16658 153.51150 31 ft 4 kts 62°
2026-05-06 02:56 -28.16670 153.51123 31 ft 4 kts 58°
2026-05-06 02:56 -28.16685 153.51102 31 ft 2 kts 41°
2026-05-06 02:57 -28.16698 153.51083 31 ft 4 kts 88°
2026-05-06 02:57 -28.16690 153.51057 31 ft 4 kts 132°
2026-05-06 02:57 -28.16674 153.51043 31 ft 0 kts 150°
2026-05-06 03:02 -28.16676 153.51044 31 ft 2 kts 150°
2026-05-06 03:02 -28.16695 153.51056 31 ft 5 kts 150°
2026-05-06 03:02 -28.16731 153.51079 31 ft 7 kts 151°
2026-05-06 03:02 -28.16780 153.51109 31 ft 9 kts 151°
2026-05-06 03:03 -28.16843 153.51132 31 ft 11 kts 205°
2026-05-06 03:03 -28.16857 153.51055 31 ft 13 kts 317°
2026-05-06 03:03 -28.16774 153.51001 31 ft 15 kts 330°
2026-05-06 03:03 -28.16680 153.50941 31 ft 16 kts 330°
2026-05-06 03:04 -28.16578 153.50875 31 ft 18 kts 330°
2026-05-06 03:04 -28.16465 153.50804 31 ft 19 kts 331°
2026-05-06 03:04 -28.16344 153.50728 31 ft 21 kts 331°
2026-05-06 03:04 -28.16260 153.50675 31 ft 21 kts 330°
2026-05-06 03:05 -28.16081 153.50559 31 ft 23 kts 330°
2026-05-06 03:05 -28.15936 153.50468 31 ft 25 kts 331°
2026-05-06 03:05 -28.15783 153.50371 31 ft 26 kts 330°
2026-05-06 03:05 -28.15651 153.50288 31 ft 15 kts 331°
2026-05-06 03:06 -28.15608 153.50183 31 ft 17 kts 244°
2026-05-06 03:06 -28.15661 153.50091 32 ft 13 kts 210°
2026-05-06 03:06 -28.15733 153.50122 32 ft 12 kts 147°
2026-05-06 03:06 -28.15936 153.50251 32 ft 70 kts 151°
2026-05-06 03:07 -28.16309 153.50489 31 ft 114 kts 150°
2026-05-06 03:07 -28.17458 153.51226 392 ft 147 kts 151°
2026-05-06 03:07 -28.18044 153.51602 781 ft 146 kts 152°
2026-05-06 03:07 -28.18954 153.52163 1219 ft 154 kts 152°
2026-05-06 03:08 -28.19966 153.52803 1598 ft 183 kts 153°
2026-05-06 03:08 -28.21232 153.53372 2100 ft 210 kts 161°
2026-05-06 03:08 -28.22691 153.53943 2756 ft 227 kts 160°
2026-05-06 03:08 -28.24211 153.54549 3618 ft 241 kts 160°
2026-05-06 03:09 -28.25913 153.54935 4257 ft 260 kts 180°
2026-05-06 03:09 -28.27691 153.54465 5113 ft 269 kts 205°
2026-05-06 03:09 -28.29164 153.53147 6039 ft 274 kts 230°
2026-05-06 03:09 -28.30259 153.51362 6979 ft 278 kts 237°
2026-05-06 03:10 -28.31308 153.49501 7919 ft 282 kts 237°
2026-05-06 03:10 -28.32385 153.47616 8821 ft 287 kts 237°
2026-05-06 03:10 -28.33490 153.45708 9716 ft 291 kts 236°
2026-05-06 03:10 -28.34631 153.43765 10444 ft 304 kts 237°
2026-05-06 03:11 -28.35848 153.41708 10911 ft 323 kts 236°
2026-05-06 03:11 -28.37124 153.39560 11665 ft 331 kts 237°
2026-05-06 03:11 -28.38420 153.37386 12568 ft 334 kts 237°
2026-05-06 03:11 -28.39729 153.35187 13451 ft 337 kts 237°
2026-05-06 03:12 -28.41047 153.32968 14304 ft 341 kts 237°
2026-05-06 03:12 -28.42380 153.30718 15118 ft 345 kts 238°
2026-05-06 03:12 -28.43725 153.28450 15925 ft 348 kts 238°
2026-05-06 03:12 -28.45087 153.26152 16714 ft 352 kts 238°
2026-05-06 03:13 -28.46461 153.23839 17482 ft 355 kts 238°
2026-05-06 03:13 -28.47845 153.21504 18223 ft 358 kts 238°
2026-05-06 03:13 -28.49246 153.19141 18945 ft 362 kts 238°
2026-05-06 03:13 -28.50655 153.16758 19636 ft 365 kts 239°
2026-05-06 03:14 -28.52082 153.14345 20311 ft 369 kts 239°
2026-05-06 03:14 -28.53520 153.11915 20955 ft 373 kts 239°
2026-05-06 03:14 -28.54974 153.09458 21584 ft 376 kts 239°
2026-05-06 03:14 -28.56422 153.07010 22202 ft 380 kts 239°
2026-05-06 03:15 -28.57903 153.04506 22833 ft 383 kts 239°
2026-05-06 03:15 -28.59393 153.01983 23436 ft 386 kts 239°
2026-05-06 03:15 -28.60891 152.99442 24018 ft 389 kts 239°
2026-05-06 03:15 -28.62408 152.96871 24567 ft 392 kts 239°
2026-05-06 03:16 -28.63931 152.94292 25110 ft 395 kts 239°
2026-05-06 03:16 -28.65470 152.91690 25647 ft 397 kts 239°
2026-05-06 03:16 -28.67019 152.89068 26165 ft 400 kts 239°
2026-05-06 03:16 -28.68569 152.86434 26673 ft 402 kts 239°
2026-05-06 03:17 -28.70129 152.83784 27147 ft 404 kts 239°
2026-05-06 03:17 -28.71699 152.81114 27607 ft 406 kts 239°
2026-05-06 03:17 -28.73276 152.78434 28045 ft 409 kts 239°
2026-05-06 03:17 -28.74860 152.75739 28471 ft 410 kts 239°
2026-05-06 03:18 -28.76449 152.73022 28879 ft 413 kts 239°
2026-05-06 03:18 -28.78042 152.70293 29288 ft 415 kts 239°
2026-05-06 03:18 -28.79647 152.67551 29681 ft 417 kts 239°
2026-05-06 03:18 -28.81259 152.64796 30072 ft 418 kts 239°
2026-05-06 03:19 -28.82875 152.62028 30437 ft 421 kts 239°
2026-05-06 03:19 -28.84712 152.59411 30784 ft 427 kts 229°
2026-05-06 03:19 -28.87038 152.57263 31120 ft 436 kts 216°
2026-05-06 03:19 -28.89715 152.55578 31450 ft 441 kts 211°
2026-05-06 03:20 -28.95207 152.52388 32170 ft 443 kts 211°
2026-05-06 03:20 -28.97939 152.50781 32594 ft 441 kts 212°
2026-05-06 03:20 -29.00657 152.49171 32987 ft 440 kts 212°
2026-05-06 03:21 -29.03373 152.47556 33372 ft 439 kts 212°
2026-05-06 03:21 -29.06077 152.45945 33712 ft 439 kts 212°
2026-05-06 03:21 -29.08780 152.44331 34063 ft 438 kts 212°
2026-05-06 03:21 -29.11478 152.42721 34391 ft 437 kts 212°
2026-05-06 03:22 -29.14168 152.41115 34723 ft 436 kts 212°
2026-05-06 03:22 -29.16854 152.39509 35042 ft 435 kts 213°
2026-05-06 03:22 -29.19532 152.37908 35351 ft 434 kts 213°
2026-05-06 03:22 -29.22175 152.36330 35644 ft 434 kts 213°
2026-05-06 03:23 -29.24844 152.34733 35900 ft 433 kts 213°
2026-05-06 03:23 -29.27516 152.33133 36108 ft 434 kts 213°
2026-05-06 03:23 -29.32866 152.29922 36139 ft 433 kts 213°
2026-05-06 03:24 -29.38203 152.26720 36118 ft 433 kts 213°
2026-05-06 03:24 -29.43545 152.23511 36124 ft 433 kts 213°
2026-05-06 03:25 -29.48882 152.20298 36130 ft 433 kts 213°
2026-05-06 03:25 -29.54224 152.17078 36136 ft 434 kts 213°
2026-05-06 03:26 -29.59568 152.13860 36129 ft 434 kts 213°
2026-05-06 03:26 -29.64911 152.10634 36130 ft 434 kts 213°
2026-05-06 03:27 -29.70326 152.07550 36124 ft 439 kts 205°
2026-05-06 03:27 -29.76310 152.05808 36131 ft 445 kts 198°
2026-05-06 03:28 -29.82359 152.04278 36122 ft 445 kts 198°
2026-05-06 03:28 -29.88351 152.02726 36128 ft 444 kts 198°
2026-05-06 03:29 -29.94378 152.01148 36133 ft 444 kts 198°
2026-05-06 03:29 -30.00415 151.99572 36128 ft 444 kts 198°
2026-05-06 03:30 -30.06444 151.97993 36133 ft 444 kts 198°
2026-05-06 03:30 -30.12472 151.96403 36127 ft 444 kts 198°
2026-05-06 03:31 -30.18499 151.94814 36134 ft 444 kts 198°
2026-05-06 03:31 -30.24529 151.93229 36134 ft 444 kts 198°
2026-05-06 03:32 -30.30555 151.91643 36132 ft 444 kts 198°
2026-05-06 03:32 -30.36336 151.89344 36132 ft 438 kts 207°
2026-05-06 03:33 -30.41978 151.86696 36134 ft 437 kts 207°
2026-05-06 03:33 -30.47613 151.84063 36138 ft 437 kts 207°
2026-05-06 03:34 -30.53256 151.81430 36135 ft 437 kts 207°
2026-05-06 03:34 -30.58901 151.78796 36133 ft 437 kts 207°
2026-05-06 03:35 -30.64507 151.76174 36133 ft 438 kts 207°
2026-05-06 03:35 -30.70156 151.73531 36136 ft 438 kts 207°
2026-05-06 03:36 -30.75806 151.70886 36125 ft 437 kts 207°
2026-05-06 03:36 -30.81449 151.68243 36123 ft 437 kts 207°
2026-05-06 03:37 -30.87082 151.65596 36117 ft 437 kts 207°
2026-05-06 03:37 -30.92725 151.62942 36116 ft 437 kts 207°
2026-05-06 03:38 -30.98317 151.60308 36123 ft 437 kts 207°
2026-05-06 03:38 -31.03996 151.57637 36123 ft 437 kts 207°
2026-05-06 03:39 -31.09629 151.54981 36118 ft 437 kts 207°
2026-05-06 03:39 -31.15261 151.52316 36116 ft 437 kts 207°
2026-05-06 03:40 -31.20899 151.49649 36117 ft 437 kts 207°
2026-05-06 03:40 -31.26528 151.46987 36119 ft 437 kts 207°
2026-05-06 03:41 -31.32123 151.44334 36123 ft 437 kts 207°
2026-05-06 03:41 -31.37749 151.41660 36123 ft 436 kts 207°
2026-05-06 03:42 -31.43419 151.39103 36120 ft 437 kts 206°
2026-05-06 03:42 -31.49103 151.36568 36117 ft 435 kts 206°
2026-05-06 03:43 -31.54706 151.34065 36113 ft 428 kts 206°
2026-05-06 03:43 -31.60342 151.31540 36125 ft 437 kts 206°
2026-05-06 03:44 -31.66022 151.28999 36126 ft 437 kts 206°
2026-05-06 03:44 -31.71703 151.26448 36118 ft 437 kts 206°
2026-05-06 03:45 -31.77386 151.23894 36120 ft 437 kts 206°
2026-05-06 03:45 -31.80201 151.22630 35901 ft 431 kts 206°
2026-05-06 03:45 -31.83004 151.21371 35644 ft 431 kts 206°
2026-05-06 03:46 -31.85801 151.20111 35387 ft 428 kts 206°
2026-05-06 03:46 -31.88573 151.18862 35026 ft 425 kts 206°
2026-05-06 03:46 -31.91290 151.17638 34552 ft 422 kts 206°
2026-05-06 03:46 -31.94028 151.16402 34029 ft 421 kts 206°
2026-05-06 03:47 -31.96756 151.15174 33515 ft 419 kts 206°
2026-05-06 03:47 -31.99505 151.13943 33000 ft 417 kts 206°
2026-05-06 03:47 -32.02173 151.12748 32501 ft 415 kts 206°
2026-05-06 03:47 -32.04864 151.11541 31977 ft 413 kts 205°
2026-05-06 03:48 -32.07550 151.10335 31453 ft 412 kts 205°
2026-05-06 03:48 -32.10222 151.09134 30940 ft 410 kts 205°
2026-05-06 03:48 -32.12883 151.07937 30451 ft 408 kts 205°
2026-05-06 03:48 -32.15525 151.06750 29965 ft 406 kts 205°
2026-05-06 03:49 -32.18161 151.05565 29443 ft 404 kts 205°
2026-05-06 03:49 -32.20785 151.04386 28934 ft 403 kts 205°
2026-05-06 03:49 -32.23403 151.03207 28432 ft 401 kts 205°
2026-05-06 03:49 -32.26002 151.02037 27934 ft 400 kts 204°
2026-05-06 03:50 -32.28596 151.00866 27433 ft 398 kts 204°
2026-05-06 03:50 -32.31174 150.99701 26929 ft 396 kts 204°
2026-05-06 03:50 -32.33745 150.98540 26418 ft 394 kts 204°
2026-05-06 03:50 -32.36292 150.97388 25930 ft 389 kts 204°
2026-05-06 03:51 -32.38807 150.96251 25461 ft 385 kts 204°
2026-05-06 03:51 -32.41293 150.95125 24979 ft 381 kts 204°
2026-05-06 03:51 -32.43758 150.94008 24475 ft 377 kts 204°
2026-05-06 03:51 -32.46200 150.92902 23989 ft 374 kts 203°
2026-05-06 03:52 -32.48630 150.91839 23517 ft 371 kts 199°
2026-05-06 03:52 -32.51173 150.91402 23043 ft 371 kts 180°
2026-05-06 03:52 -32.53730 150.91757 22586 ft 369 kts 173°
2026-05-06 03:52 -32.56255 150.92257 22119 ft 366 kts 172°
2026-05-06 03:53 -32.58759 150.92748 21662 ft 363 kts 173°
2026-05-06 03:53 -32.61244 150.93212 21199 ft 360 kts 173°
2026-05-06 03:53 -32.63705 150.93659 20754 ft 356 kts 173°
2026-05-06 03:53 -32.66146 150.94095 20330 ft 352 kts 173°
2026-05-06 03:54 -32.68560 150.94525 19905 ft 349 kts 173°
2026-05-06 03:54 -32.70947 150.94953 19484 ft 346 kts 173°
2026-05-06 03:54 -32.73317 150.95381 19069 ft 343 kts 173°
2026-05-06 03:54 -32.75630 150.95795 18672 ft 339 kts 173°
2026-05-06 03:55 -32.77948 150.96211 18284 ft 335 kts 173°
2026-05-06 03:55 -32.80252 150.96623 17918 ft 335 kts 173°
2026-05-06 03:55 -32.82560 150.97034 17537 ft 336 kts 173°
2026-05-06 03:55 -32.84876 150.97446 17150 ft 337 kts 173°
2026-05-06 03:56 -32.87200 150.97859 16757 ft 338 kts 173°
2026-05-06 03:56 -32.89523 150.98271 16391 ft 338 kts 173°
2026-05-06 03:56 -32.91844 150.98683 16018 ft 337 kts 173°
2026-05-06 03:56 -32.94169 150.99098 15649 ft 338 kts 173°
2026-05-06 03:57 -32.96492 150.99513 15276 ft 338 kts 173°
2026-05-06 03:57 -32.98818 150.99926 14887 ft 337 kts 173°
2026-05-06 03:57 -33.01123 151.00337 14495 ft 333 kts 173°
2026-05-06 03:57 -33.03398 151.00745 14115 ft 328 kts 173°
2026-05-06 03:58 -33.05643 151.01148 13739 ft 324 kts 173°
2026-05-06 03:58 -33.07863 151.01545 13371 ft 320 kts 173°
2026-05-06 03:58 -33.10049 151.01936 13012 ft 316 kts 173°
2026-05-06 03:58 -33.11485 151.02193 12763 ft 313 kts 173°
2026-05-06 03:59 -33.13626 151.02577 12421 ft 309 kts 172°
2026-05-06 03:59 -33.16423 151.03078 11948 ft 304 kts 173°
2026-05-06 03:59 -33.18512 151.03450 11585 ft 303 kts 172°
2026-05-06 03:59 -33.20595 151.03821 11233 ft 303 kts 172°
2026-05-06 04:00 -33.22000 151.04070 10957 ft 302 kts 172°
2026-05-06 04:00 -33.24738 151.04563 10468 ft 298 kts 172°
2026-05-06 04:00 -33.26102 151.04824 10324 ft 292 kts 172°
2026-05-06 04:00 -33.28081 151.05211 10179 ft 281 kts 172°
2026-05-06 04:01 -33.30571 151.05690 9994 ft 266 kts 172°
2026-05-06 04:01 -33.31784 151.05922 9888 ft 258 kts 172°
2026-05-06 04:01 -33.33522 151.06256 9673 ft 249 kts 172°
2026-05-06 04:01 -33.35217 151.06581 9281 ft 245 kts 172°
2026-05-06 04:02 -33.37438 151.07007 8700 ft 244 kts 171°
2026-05-06 04:02 -33.38570 151.07226 8401 ft 243 kts 171°
2026-05-06 04:02 -33.40233 151.07546 7991 ft 241 kts 171°
2026-05-06 04:02 -33.41879 151.07862 7593 ft 238 kts 171°
2026-05-06 04:03 -33.43512 151.08174 7221 ft 237 kts 171°
2026-05-06 04:03 -33.45138 151.08487 6900 ft 236 kts 171°
2026-05-06 04:03 -33.46754 151.08797 6607 ft 235 kts 171°
2026-05-06 04:03 -33.48361 151.09106 6326 ft 234 kts 171°
2026-05-06 04:04 -33.49957 151.09413 6043 ft 230 kts 171°
2026-05-06 04:04 -33.51486 151.09708 5898 ft 214 kts 171°
2026-05-06 04:04 -33.52904 151.09980 5771 ft 201 kts 171°
2026-05-06 04:04 -33.54268 151.10244 5509 ft 197 kts 171°
2026-05-06 04:05 -33.55619 151.10506 5274 ft 196 kts 171°
2026-05-06 04:05 -33.56974 151.10769 5074 ft 206 kts 171°
2026-05-06 04:05 -33.58391 151.11041 4886 ft 206 kts 171°
2026-05-06 04:05 -33.59809 151.11304 4714 ft 205 kts 172°
2026-05-06 04:06 -33.61223 151.11526 4536 ft 205 kts 173°
2026-05-06 04:06 -33.62636 151.11743 4357 ft 204 kts 173°
2026-05-06 04:06 -33.64046 151.11959 4200 ft 204 kts 173°
2026-05-06 04:06 -33.65453 151.12173 4070 ft 204 kts 173°
2026-05-06 04:07 -33.66860 151.12303 3934 ft 202 kts 181°
2026-05-06 04:07 -33.68176 151.12236 3794 ft 198 kts 182°
2026-05-06 04:07 -33.69542 151.12156 3612 ft 197 kts 182°
2026-05-06 04:07 -33.70911 151.12073 3416 ft 196 kts 182°
2026-05-06 04:08 -33.72270 151.11998 3212 ft 195 kts 180°
2026-05-06 04:08 -33.73620 151.12164 3016 ft 195 kts 170°
2026-05-06 04:08 -33.74943 151.12495 2935 ft 195 kts 168°
2026-05-06 04:08 -33.76267 151.12835 2931 ft 194 kts 167°
2026-05-06 04:09 -33.77591 151.13177 2952 ft 195 kts 167°
2026-05-06 04:09 -33.78909 151.13518 2834 ft 191 kts 167°
2026-05-06 04:09 -33.80168 151.13844 2614 ft 184 kts 167°
2026-05-06 04:09 -33.81391 151.14161 2369 ft 174 kts 167°
2026-05-06 04:10 -33.82549 151.14462 2160 ft 165 kts 167°
2026-05-06 04:10 -33.83651 151.14748 1942 ft 164 kts 167°
2026-05-06 04:10 -33.84744 151.15031 1715 ft 158 kts 167°
2026-05-06 04:10 -33.85814 151.15309 1509 ft 153 kts 167°
2026-05-06 04:11 -33.86813 151.15568 1308 ft 142 kts 167°
2026-05-06 04:11 -33.87740 151.15809 1106 ft 133 kts 167°
2026-05-06 04:11 -33.88633 151.16041 943 ft 132 kts 167°
2026-05-06 04:11 -33.89532 151.16275 768 ft 131 kts 167°
2026-05-06 04:12 -33.90425 151.16512 619 ft 132 kts 167°
2026-05-06 04:12 -33.91318 151.16736 415 ft 131 kts 167°
2026-05-06 04:12 -33.92206 151.16966 229 ft 130 kts 166°
2026-05-06 04:12 -33.93086 151.17195 59 ft 129 kts 166°
2026-05-06 04:13 -33.93909 151.17412 32 ft 99 kts 167°
2026-05-06 04:13 -33.94359 151.17526 35 ft 49 kts 165°
2026-05-06 04:13 -33.94536 151.17596 35 ft 15 kts 99°
2026-05-06 04:13 -33.94523 151.17711 35 ft 11 kts 78°
2026-05-06 04:14 -33.94482 151.17776 35 ft 12 kts
2026-05-06 04:14 -33.94397 151.17754 35 ft 14 kts 343°
2026-05-06 04:14 -33.94299 151.17722 35 ft 15 kts 347°
2026-05-06 04:14 -33.94188 151.17690 35 ft 17 kts 347°
2026-05-06 04:15 -33.94067 151.17654 34 ft 19 kts 348°
2026-05-06 04:15 -33.93934 151.17620 34 ft 21 kts 348°
2026-05-06 04:15 -33.93794 151.17583 34 ft 19 kts 348°
2026-05-06 04:15 -33.93660 151.17548 34 ft 20 kts 348°
2026-05-06 04:16 -33.93547 151.17518 34 ft 13 kts 348°
2026-05-06 04:16 -33.93465 151.17527 35 ft 11 kts 57°
2026-05-06 04:16 -33.93478 151.17580 35 ft 8 kts 143°
2026-05-06 04:16 -33.93506 151.17638 35 ft 6 kts 99°
2026-05-06 04:17 -33.93511 151.17676 35 ft 2 kts 102°
2026-05-06 04:17 -33.93513 151.17688 35 ft 1 kts 102°
2026-05-06 04:17 -33.93513 151.17691 35 ft 0 kts 102°